Flight Track Log - Related Links

Times and Time Zones

All times are in EDT time to prevent confusion due to time zone crossing. See the CPZ5714 flight status page for this flight to view local times or setup timezone preferences in your user account.

Time Position Orientation Groundspeed Altitude Reporting Facility
EDT Latitude Longitude Course Direction KTS MPH feet Rate Location/Type
Mon 06:11:06 AM 35.8686 -78.8114 31° Northeast 150 173 1,500  Level Washington Center
Mon 06:12:31 AM 35.8375 -78.8869 243° Southwest 226 260 4,300 2,000 Climbing Washington Center
Mon 06:13:30 AM 35.9025 -78.8769 North 272 313 6,300 2,450 Climbing Washington Center
Mon 06:14:31 AM 35.9628 -78.7997 46° Northeast 261 300 9,200 2,262 Climbing Washington Center
Mon 06:15:00 AM 36.3146 -78.3521 39° Northeast  Level FlightAware Approximate
Mon 06:15:32 AM 36.0297 -78.7153 46° Northeast 299 344 10,900  Level Washington Center
Mon 06:16:00 AM 36.4078 -78.2692 31° Northeast  Level FlightAware Approximate
Mon 06:16:32 AM 36.1053 -78.6231 45° Northeast 341 392 13,200  Level Washington Center
Mon 06:17:33 AM 36.1761 -78.5358 45° Northeast 377 434 15,200 2,033 Climbing Washington Center
Mon 06:18:33 AM 36.2644 -78.4283 44° Northeast 398 458 17,300 2,000 Climbing Washington Center
Mon 06:19:30 AM 36.3583 -78.3361 38° Northeast 403 464 19,100 1,729 Climbing Washington Center
Mon 06:20:31 AM 36.4542 -78.2467 37° Northeast 419 482 20,700 1,587 Climbing Washington Center
Mon 06:21:31 AM 36.5564 -78.1544 36° Northeast 438 504 22,300 1,400 Climbing Washington Center
Mon 06:22:31 AM 36.6436 -78.0692 38° Northeast 444 511 23,500 1,350 Climbing Washington Center
Mon 06:23:31 AM 36.7586 -77.9589 38° Northeast 456 525 25,000 1,328 Climbing Washington Center
Mon 06:24:33 AM 36.8525 -77.8500 43° Northeast 456 525 26,200 1,050 Climbing Washington Center
Mon 06:25:31 AM 36.9383 -77.7200 50° Northeast 461 531 27,100 908 Climbing Washington Center
Mon 06:26:32 AM 37.0219 -77.5897 51° Northeast 472 543 28,000 843 Climbing Washington Center
Mon 06:27:32 AM 37.1097 -77.4539 51° Northeast 484 557 28,800 843 Climbing Washington Center
Mon 06:28:33 AM 37.1972 -77.3206 50° Northeast 489 563 29,700 1,091 Climbing Washington Center
Mon 06:29:33 AM 37.2825 -77.1867 51° Northeast 489 563 31,000 1,150 Climbing Washington Center
Mon 06:30:33 AM 37.3861 -77.0739 41° Northeast 489 563 32,000 900 Climbing Washington Center
Mon 06:31:33 AM 37.4936 -76.9922 31° Northeast 496 571 32,800 966 Climbing Washington Center
Mon 06:32:31 AM 37.6175 -76.9028 30° Northeast 504 580 33,900 1,059 Climbing Washington Center
Mon 06:33:32 AM 37.7331 -76.8156 31° Northeast 490 564 34,900 541 Climbing Washington Center
Mon 06:34:33 AM 37.8717 -76.7386 24° Northeast 490 564 35,000 50 Climbing Washington Center
Mon 06:35:33 AM 38.0014 -76.6722 22° Northeast 495 570 35,000  Level Washington Center
Mon 06:36:31 AM 38.1333 -76.6056 22° Northeast 500 575 35,000  Level Washington Center
Mon 06:37:32 AM 38.2633 -76.5358 23° Northeast 500 575 35,000  Level Washington Center
Mon 06:38:33 AM 38.3642 -76.4444 35° Northeast 487 560 35,000  Level Washington Center
Mon 06:39:31 AM 38.4711 -76.3264 41° Northeast 497 572 35,000  Level Washington Center
Mon 06:40:32 AM 38.5783 -76.2050 41° Northeast 502 578 35,000 -984 Level Washington Center
Mon 06:41:33 AM 38.6831 -76.0836 42° Northeast 508 585 33,000 -2,380 Descending Washington Center
Mon 06:42:33 AM 38.7897 -75.9592 42° Northeast 513 590 30,200 -2,797 Descending Washington Center
Mon 06:43:31 AM 38.8983 -75.8425 40° Northeast 513 590 27,500 -1,613 Descending Washington Center
Mon 06:44:32 AM 39.0050 -75.7358 38° Northeast 507 583 27,000 -246 Descending Washington Center
Mon 06:45:33 AM 39.1156 -75.6292 37° Northeast 497 572 27,000  Level Washington Center
Mon 06:46:30 AM 39.2258 -75.5247 36° Northeast 490 564 27,000 -508 Level Washington Center
Mon 06:47:31 AM 39.3383 -75.4225 35° Northeast 485 558 26,000 -1,488 Descending Washington Center
Mon 06:48:31 AM 39.4486 -75.3256 34° Northeast 485 558 24,000 -1,884 Descending Washington Center
Mon 06:49:32 AM 39.5547 -75.2283 35° Northeast 474 545 22,200 -1,574 Descending Washington Center
Mon 06:50:33 AM 39.6564 -75.1333 36° Northeast 463 533 20,800 -1,866 Descending Washington Center
Mon 06:51:31 AM 39.7686 -75.0328 35° Northeast 446 513 18,500 -2,237 Descending Washington Center
Mon 06:52:31 AM 39.8597 -74.9536 34° Northeast 441 507 16,400 -2,343 Descending Washington Center
Mon 06:53:16 AM 39.9333 -74.8667 42° Northeast 420 483 14,400 -2,400 Descending New York TRACON
Mon 06:54:16 AM 40.0167 -74.7667 43° Northeast 407 468 12,200 -2,100 Descending New York TRACON
Mon 06:55:16 AM 40.0833 -74.6500 53° Northeast 392 451 10,200 -1,100 Descending New York TRACON
Mon 06:56:16 AM 40.1667 -74.5500 43° Northeast 383 441 10,000 -105 Descending New York TRACON
Mon 06:57:10 AM 40.2333 -74.4667 44° Northeast 382 440 10,000  Level New York TRACON
Mon 06:58:10 AM 40.3167 -74.3667 42° Northeast 383 441 10,000  Level New York TRACON
Mon 06:59:10 AM 40.4000 -74.2833 37° Northeast 377 434 10,000 -263 Level New York TRACON
Mon 07:00:04 AM 40.4667 -74.2167 37° Northeast 324 373 9,500 -778 Descending New York TRACON
Mon 07:00:58 AM 40.5167 -74.1667 37° Northeast 314 361 8,600 -1,000 Descending New York TRACON
Mon 07:01:58 AM 40.6000 -74.1000 31° Northeast 312 359 7,600 -1,000 Descending New York TRACON
Mon 07:02:58 AM 40.6667 -74.0500 30° Northeast 308 354 6,600 -1,000 Descending New York TRACON
Mon 07:03:58 AM 40.7500 -74.0000 24° Northeast 301 346 5,600 -1,000 Descending New York TRACON
Mon 07:04:52 AM 40.8167 -73.9667 21° North 294 338 4,700 -889 Descending New York TRACON
Mon 07:05:46 AM 40.8833 -73.9167 30° Northeast 282 325 4,000 -368 Descending New York TRACON
Mon 07:06:46 AM 40.9333 -73.8833 27° Northeast 222 255 4,000 -104 Level New York TRACON
Mon 07:07:41 AM 40.9500 -73.8167 72° East 212 244 3,800 -526 Descending New York TRACON
Mon 07:08:40 AM 40.9333 -73.7667 114° Southeast 177 204 3,000 -850 Descending New York TRACON
Mon 07:09:34 AM 40.9000 -73.7833 201° Southwest 150 173 2,200 -889 Descending New York TRACON

Login

Don't have an account? Register now (free) for customized features, flight alerts, and more!